Voltar ao catálogo

STARLINK-34407

AtivoComunicaçõesVLEO
NORAD 64347·PAYLOAD·🇺🇸 United States

Lançado Jun 13, 2025 de Vandenberg Space Force Base

Loading…

Próximas Passagens (próximas 24 horas)

TLE

AtualizadoSource: CelesTrak SupGP

Época: Sep 15, 2026, 02:48 UTC

1 64347C 25126D   26258.11715278 -.00021205  00000+0 -73758-3 0  2587
2 64347  69.9998 275.2857 0003648 267.0521 152.0529 15.29591549    11

Acompanhe STARLINK-34407 em tempo real com AllMySat

Download on the App Store